ITY2014 AGGH-NVVV

Flight info

Callsign ITY2014
Flight time 1h 38m
Altitude 37000
Route NIPE1B SAKPI B598 VLI
Aircraft A20N/M-SDE2E3FGHIRWXY/LB1

Departure

Time 2026-04-21 17:21
Airport Honiara International Airport (AGGH)

Arrival

Time 2026-04-21 18:59
Airport Bauerfield International Airport (NVVV)
Time Latitude Longitude Altitude Speed Heading
2026-04-21 16:39 -9.42833 160.04558 28 ft 0 kts 296°
2026-04-21 17:16 -9.42834 160.04554 28 ft 2 kts 269°
2026-04-21 17:16 -9.42856 160.04533 27 ft 7 kts 199°
2026-04-21 17:16 -9.42895 160.04554 26 ft 5 kts 129°
2026-04-21 17:17 -9.42902 160.04570 29 ft 2 kts 121°
2026-04-21 17:17 -9.42909 160.04566 30 ft 2 kts 219°
2026-04-21 17:17 -9.42912 160.04551 31 ft 1 kts 255°
2026-04-21 17:17 -9.42917 160.04532 26 ft 0 kts 254°
2026-04-21 17:18 -9.42926 160.04514 27 ft 6 kts 231°
2026-04-21 17:18 -9.42980 160.04503 26 ft 11 kts 164°
2026-04-21 17:18 -9.43059 160.04535 26 ft 11 kts 158°
2026-04-21 17:18 -9.43063 160.04537 27 ft 0 kts 158°
2026-04-21 17:19 -9.43079 160.04543 27 ft 4 kts 158°
2026-04-21 17:19 -9.43123 160.04562 27 ft 11 kts 158°
2026-04-21 17:20 -9.43152 160.04627 28 ft 8 kts 62°
2026-04-21 17:20 -9.43147 160.04637 27 ft 13 kts 66°
2026-04-21 17:20 -9.42993 160.05021 27 ft 102 kts 68°
2026-04-21 17:20 -9.42635 160.05905 72 ft 162 kts 67°
2026-04-21 17:21 -9.42192 160.06941 854 ft 161 kts 68°
2026-04-21 17:21 -9.41757 160.08009 1679 ft 166 kts 69°
2026-04-21 17:21 -9.41318 160.09129 2332 ft 179 kts 69°
2026-04-21 17:21 -9.41112 160.10417 2799 ft 197 kts 103°
2026-04-21 17:22 -9.41888 160.11595 3186 ft 220 kts 146°
2026-04-21 17:22 -9.43358 160.12254 3672 ft 244 kts 162°
2026-04-21 17:22 -9.45072 160.12728 4198 ft 265 kts 166°
2026-04-21 17:22 -9.46895 160.13166 4988 ft 272 kts 166°
2026-04-21 17:23 -9.48755 160.13600 5893 ft 276 kts 167°
2026-04-21 17:23 -9.50646 160.14039 6727 ft 281 kts 167°
2026-04-21 17:23 -9.52570 160.14512 7542 ft 286 kts 163°
2026-04-21 17:23 -9.54422 160.15279 8348 ft 290 kts 150°
2026-04-21 17:24 -9.56038 160.16484 9151 ft 294 kts 141°
2026-04-21 17:24 -9.57633 160.17816 9931 ft 299 kts 140°
2026-04-21 17:24 -9.59233 160.19214 10461 ft 313 kts 139°
2026-04-21 17:24 -9.60918 160.20752 10677 ft 337 kts 137°
2026-04-21 17:25 -9.62689 160.22414 11016 ft 353 kts 137°
2026-04-21 17:25 -9.64494 160.24127 11728 ft 357 kts 137°
2026-04-21 17:25 -9.66323 160.25867 12419 ft 362 kts 137°
2026-04-21 17:25 -9.68177 160.27630 13116 ft 366 kts 137°
2026-04-21 17:26 -9.70048 160.29408 13775 ft 371 kts 137°
2026-04-21 17:26 -9.71921 160.31187 14386 ft 375 kts 137°
2026-04-21 17:26 -9.73833 160.33002 15012 ft 378 kts 137°
2026-04-21 17:26 -9.75767 160.34838 15585 ft 383 kts 137°
2026-04-21 17:27 -9.77723 160.36694 16216 ft 386 kts 137°
2026-04-21 17:27 -9.79694 160.38565 16802 ft 390 kts 137°
2026-04-21 17:27 -9.81682 160.40451 17379 ft 393 kts 137°
2026-04-21 17:27 -9.83693 160.42359 17940 ft 397 kts 137°
2026-04-21 17:28 -9.85724 160.44288 18456 ft 401 kts 137°
2026-04-21 17:28 -9.87773 160.46231 18903 ft 405 kts 138°
2026-04-21 17:28 -9.89840 160.48191 19353 ft 409 kts 138°
2026-04-21 17:28 -9.91905 160.50149 19795 ft 413 kts 138°
2026-04-21 17:29 -9.94021 160.52155 20240 ft 417 kts 138°
2026-04-21 17:29 -9.96155 160.54178 20684 ft 421 kts 138°
2026-04-21 17:29 -9.98306 160.56217 21129 ft 425 kts 138°
2026-04-21 17:29 -10.00477 160.58276 21531 ft 430 kts 138°
2026-04-21 17:30 -10.02674 160.60359 21972 ft 434 kts 139°
2026-04-21 17:30 -10.04888 160.62459 22397 ft 437 kts 139°
2026-04-21 17:30 -10.07119 160.64574 22818 ft 441 kts 139°
2026-04-21 17:30 -10.09374 160.66711 23232 ft 445 kts 139°
2026-04-21 17:31 -10.11646 160.68865 23606 ft 448 kts 139°
2026-04-21 17:31 -10.13932 160.71031 23972 ft 451 kts 139°
2026-04-21 17:31 -10.16207 160.73188 24341 ft 453 kts 139°
2026-04-21 17:31 -10.18524 160.75393 24707 ft 456 kts 138°
2026-04-21 17:32 -10.20057 160.76864 24939 ft 457 kts 138°
2026-04-21 17:32 -10.23163 160.79851 25408 ft 461 kts 138°
2026-04-21 17:32 -10.25471 160.82071 25748 ft 463 kts 138°
2026-04-21 17:32 -10.27824 160.84332 26083 ft 466 kts 138°
2026-04-21 17:33 -10.30185 160.86600 26414 ft 468 kts 138°
2026-04-21 17:33 -10.32558 160.88879 26741 ft 471 kts 138°
2026-04-21 17:33 -10.34950 160.91178 27059 ft 473 kts 138°
2026-04-21 17:33 -10.37347 160.93480 27373 ft 475 kts 138°
2026-04-21 17:34 -10.39755 160.95795 27687 ft 478 kts 138°
2026-04-21 17:34 -10.42176 160.98122 27991 ft 480 kts 138°
2026-04-21 17:34 -10.44572 161.00426 28288 ft 482 kts 138°
2026-04-21 17:34 -10.47014 161.02774 28578 ft 484 kts 138°
2026-04-21 17:35 -10.49467 161.05133 28869 ft 487 kts 138°
2026-04-21 17:35 -10.51930 161.07503 29153 ft 489 kts 138°
2026-04-21 17:35 -10.54404 161.09883 29430 ft 491 kts 138°
2026-04-21 17:35 -10.56890 161.12276 29710 ft 493 kts 137°
2026-04-21 17:36 -10.59386 161.14679 29976 ft 495 kts 137°
2026-04-21 17:36 -10.61890 161.17090 30221 ft 497 kts 137°
2026-04-21 17:36 -10.64417 161.19523 30488 ft 499 kts 137°
2026-04-21 17:36 -10.66942 161.21958 30740 ft 501 kts 137°
2026-04-21 17:37 -10.69471 161.24404 31030 ft 502 kts 137°
2026-04-21 17:37 -10.71999 161.26850 31372 ft 501 kts 137°
2026-04-21 17:37 -10.73675 161.28472 31554 ft 502 kts 137°
2026-04-21 17:37 -10.77041 161.31729 31975 ft 502 kts 137°
2026-04-21 17:38 -10.79570 161.34176 32322 ft 501 kts 137°
2026-04-21 17:38 -10.82094 161.36618 32659 ft 500 kts 137°
2026-04-21 17:38 -10.84623 161.39065 32993 ft 500 kts 137°
2026-04-21 17:38 -10.87138 161.41500 33314 ft 499 kts 137°
2026-04-21 17:39 -10.89652 161.43935 33632 ft 498 kts 137°
2026-04-21 17:39 -10.92158 161.46363 33930 ft 498 kts 137°
2026-04-21 17:39 -10.94667 161.48794 34188 ft 497 kts 137°
2026-04-21 17:39 -10.97170 161.51221 34441 ft 497 kts 137°
2026-04-21 17:40 -10.99671 161.53646 34688 ft 496 kts 137°
2026-04-21 17:40 -11.02175 161.56074 34930 ft 496 kts 137°
2026-04-21 17:40 -11.04639 161.58464 35173 ft 496 kts 137°
2026-04-21 17:40 -11.07137 161.60888 35393 ft 495 kts 137°
2026-04-21 17:41 -11.09637 161.63314 35630 ft 495 kts 138°
2026-04-21 17:41 -11.12129 161.65734 35835 ft 496 kts 138°
2026-04-21 17:41 -11.14629 161.68161 36059 ft 496 kts 138°
2026-04-21 17:41 -11.17125 161.70585 36299 ft 495 kts 138°
2026-04-21 17:42 -11.19613 161.73001 36523 ft 494 kts 138°
2026-04-21 17:42 -11.22109 161.75427 36743 ft 494 kts 138°
2026-04-21 17:42 -11.24565 161.77814 36864 ft 494 kts 138°
2026-04-21 17:42 -11.27055 161.80234 36871 ft 493 kts 138°
2026-04-21 17:43 -11.32012 161.85055 36871 ft 492 kts 138°
2026-04-21 17:43 -11.36975 161.89883 36861 ft 493 kts 138°
2026-04-21 17:44 -11.41908 161.94686 36868 ft 492 kts 138°
2026-04-21 17:44 -11.46870 161.99520 36872 ft 492 kts 138°
2026-04-21 17:45 -11.51831 162.04355 36860 ft 493 kts 139°
2026-04-21 17:45 -11.56756 162.09157 36864 ft 493 kts 139°
2026-04-21 17:46 -11.61711 162.13991 36866 ft 493 kts 139°
2026-04-21 17:46 -11.66672 162.18833 36869 ft 493 kts 139°
2026-04-21 17:47 -11.71626 162.23671 36869 ft 493 kts 139°
2026-04-21 17:47 -11.76589 162.28519 36864 ft 493 kts 139°
2026-04-21 17:48 -11.81514 162.33334 36865 ft 493 kts 139°
2026-04-21 17:48 -11.86472 162.38184 36860 ft 493 kts 139°
2026-04-21 17:49 -11.91433 162.43039 36859 ft 494 kts 139°
2026-04-21 17:49 -11.96402 162.47903 36858 ft 494 kts 139°
2026-04-21 17:50 -12.01366 162.52767 36867 ft 494 kts 139°
2026-04-21 17:50 -12.06333 162.57635 36872 ft 494 kts 139°
2026-04-21 17:51 -12.11267 162.62473 36865 ft 495 kts 139°
2026-04-21 17:51 -12.16237 162.67351 36862 ft 495 kts 139°
2026-04-21 17:52 -12.21206 162.72229 36874 ft 495 kts 139°
2026-04-21 17:52 -12.26178 162.77114 36860 ft 495 kts 139°
2026-04-21 17:53 -12.31155 162.82005 36860 ft 496 kts 139°
2026-04-21 17:53 -12.36131 162.86898 36858 ft 496 kts 139°
2026-04-21 17:54 -12.41075 162.91763 36857 ft 496 kts 139°
2026-04-21 17:54 -12.46054 162.96664 36860 ft 496 kts 139°
2026-04-21 17:55 -12.51039 163.01574 36869 ft 496 kts 139°
2026-04-21 17:55 -12.56015 163.06479 36862 ft 497 kts 139°
2026-04-21 17:56 -12.60968 163.11364 36854 ft 497 kts 139°
2026-04-21 17:56 -12.65960 163.16290 36853 ft 497 kts 139°
2026-04-21 17:57 -12.70952 163.21218 36855 ft 498 kts 139°
2026-04-21 17:57 -12.75910 163.26115 36857 ft 498 kts 139°
2026-04-21 17:58 -12.80067 163.30225 36859 ft 498 kts 138°
2026-04-21 17:58 -12.85058 163.35160 36864 ft 498 kts 138°
2026-04-21 17:59 -12.90043 163.40092 36862 ft 498 kts 138°
2026-04-21 17:59 -12.95843 163.45835 36872 ft 498 kts 138°
2026-04-21 18:00 -13.00025 163.49978 36852 ft 499 kts 138°
2026-04-21 18:00 -13.04997 163.54906 36854 ft 499 kts 138°
2026-04-21 18:01 -13.09996 163.59864 36855 ft 500 kts 138°
2026-04-21 18:01 -13.15004 163.64834 36856 ft 500 kts 138°
2026-04-21 18:02 -13.20005 163.69799 36859 ft 500 kts 138°
2026-04-21 18:02 -13.24974 163.74737 36861 ft 500 kts 138°
2026-04-21 18:03 -13.29976 163.79710 36860 ft 500 kts 138°
2026-04-21 18:03 -13.34988 163.84695 36854 ft 501 kts 138°
2026-04-21 18:04 -13.39996 163.89679 36856 ft 501 kts 138°
2026-04-21 18:04 -13.44982 163.94643 36857 ft 501 kts 138°
2026-04-21 18:05 -13.49993 163.99629 36857 ft 501 kts 138°
2026-04-21 18:05 -13.55015 164.04609 36862 ft 501 kts 138°
2026-04-21 18:06 -13.60033 164.09588 36863 ft 501 kts 138°
2026-04-21 18:06 -13.65051 164.14570 36862 ft 501 kts 138°
2026-04-21 18:07 -13.70068 164.19553 36877 ft 501 kts 138°
2026-04-21 18:07 -13.75088 164.24544 36852 ft 502 kts 138°
2026-04-21 18:08 -13.80085 164.29517 36852 ft 502 kts 138°
2026-04-21 18:08 -13.85116 164.34526 36852 ft 502 kts 138°
2026-04-21 18:09 -13.90139 164.39529 36852 ft 502 kts 138°
2026-04-21 18:09 -13.95129 164.44503 36853 ft 502 kts 137°
2026-04-21 18:10 -14.00157 164.49520 36858 ft 503 kts 137°
2026-04-21 18:10 -14.05180 164.54534 36859 ft 503 kts 137°
2026-04-21 18:11 -14.10203 164.59551 36861 ft 503 kts 137°
2026-04-21 18:11 -14.15232 164.64578 36859 ft 503 kts 137°
2026-04-21 18:12 -14.20226 164.69573 36860 ft 503 kts 137°
2026-04-21 18:12 -14.25253 164.74603 36860 ft 503 kts 137°
2026-04-21 18:13 -14.30287 164.79645 36861 ft 503 kts 137°
2026-04-21 18:13 -14.35286 164.84656 36862 ft 503 kts 137°
2026-04-21 18:14 -14.42826 164.92217 36868 ft 503 kts 137°
2026-04-21 18:15 -14.47854 164.97265 36855 ft 504 kts 137°
2026-04-21 18:15 -14.52883 165.02316 36856 ft 504 kts 137°
2026-04-21 18:16 -14.57873 165.07332 36857 ft 504 kts 137°
2026-04-21 18:16 -14.62901 165.12389 36857 ft 504 kts 137°
2026-04-21 18:17 -14.67936 165.17457 36856 ft 504 kts 137°
2026-04-21 18:17 -14.72962 165.22519 36857 ft 504 kts 137°
2026-04-21 18:18 -14.77961 165.27557 36859 ft 504 kts 137°
2026-04-21 18:18 -14.82988 165.32627 36855 ft 505 kts 137°
2026-04-21 18:19 -14.88016 165.37701 36856 ft 505 kts 137°
2026-04-21 18:19 -14.93048 165.42783 36861 ft 505 kts 137°
2026-04-21 18:20 -14.98083 165.47872 36864 ft 505 kts 137°
2026-04-21 18:20 -15.03115 165.52961 36861 ft 506 kts 137°
2026-04-21 18:21 -15.08119 165.58025 36864 ft 506 kts 137°
2026-04-21 18:21 -15.13153 165.63123 36861 ft 506 kts 137°
2026-04-21 18:22 -15.18181 165.68219 36882 ft 506 kts 137°
2026-04-21 18:22 -15.23223 165.73333 36858 ft 507 kts 137°
2026-04-21 18:23 -15.28230 165.78414 36856 ft 507 kts 137°
2026-04-21 18:23 -15.33269 165.83532 36863 ft 507 kts 137°
2026-04-21 18:24 -15.38304 165.88649 36863 ft 507 kts 137°
2026-04-21 18:24 -15.43348 165.93779 36864 ft 507 kts 137°
2026-04-21 18:25 -15.48388 165.98909 36862 ft 507 kts 137°
2026-04-21 18:25 -15.53392 166.04005 36864 ft 507 kts 137°
2026-04-21 18:26 -15.58433 166.09145 36851 ft 508 kts 137°
2026-04-21 18:26 -15.63479 166.14291 36853 ft 509 kts 137°
2026-04-21 18:27 -15.68525 166.19441 36865 ft 509 kts 137°
2026-04-21 18:27 -15.73576 166.24600 36866 ft 509 kts 137°
2026-04-21 18:28 -15.78593 166.29730 36873 ft 509 kts 137°
2026-04-21 18:28 -15.83650 166.34903 36873 ft 509 kts 137°
2026-04-21 18:29 -15.88696 166.40069 36873 ft 509 kts 137°
2026-04-21 18:29 -15.93751 166.45248 36850 ft 510 kts 137°
2026-04-21 18:30 -15.98779 166.50403 36855 ft 510 kts 137°
2026-04-21 18:30 -16.03837 166.55593 36869 ft 510 kts 137°
2026-04-21 18:31 -16.08896 166.60788 36872 ft 511 kts 137°
2026-04-21 18:31 -16.13926 166.65957 36873 ft 511 kts 137°
2026-04-21 18:32 -16.18982 166.71156 36874 ft 511 kts 137°
2026-04-21 18:32 -16.24036 166.76358 36877 ft 511 kts 137°
2026-04-21 18:33 -16.29107 166.81580 36884 ft 512 kts 137°
2026-04-21 18:33 -16.34203 166.86833 36866 ft 517 kts 137°
2026-04-21 18:34 -16.39294 166.92085 36878 ft 513 kts 137°
2026-04-21 18:34 -16.44375 166.97330 36872 ft 514 kts 137°
2026-04-21 18:35 -16.48603 167.01698 36851 ft 514 kts 137°
2026-04-21 18:35 -16.51957 167.05166 36554 ft 514 kts 137°
2026-04-21 18:35 -16.54509 167.07805 36307 ft 514 kts 137°
2026-04-21 18:35 -16.57049 167.10433 36064 ft 515 kts 137°
2026-04-21 18:36 -16.59562 167.13034 35828 ft 516 kts 137°
2026-04-21 18:36 -16.62109 167.15671 35591 ft 516 kts 137°
2026-04-21 18:36 -16.64665 167.18319 35353 ft 517 kts 137°
2026-04-21 18:36 -16.67231 167.20978 35050 ft 521 kts 137°
2026-04-21 18:37 -16.69818 167.23662 34494 ft 524 kts 137°
2026-04-21 18:37 -16.72409 167.26350 33792 ft 527 kts 137°
2026-04-21 18:37 -16.75015 167.29054 32841 ft 531 kts 137°
2026-04-21 18:37 -16.77620 167.31757 31879 ft 535 kts 137°
2026-04-21 18:38 -16.80272 167.34509 30965 ft 538 kts 137°
2026-04-21 18:38 -16.82907 167.37247 30411 ft 532 kts 137°
2026-04-21 18:38 -16.85532 167.39977 29736 ft 528 kts 136°
2026-04-21 18:38 -16.88126 167.42675 29117 ft 522 kts 136°
2026-04-21 18:39 -16.90684 167.45336 28508 ft 516 kts 136°
2026-04-21 18:39 -16.93217 167.47971 27897 ft 511 kts 136°
2026-04-21 18:39 -16.95721 167.50578 27290 ft 506 kts 136°
2026-04-21 18:39 -16.98169 167.53125 26698 ft 501 kts 136°
2026-04-21 18:40 -17.00628 167.55685 26074 ft 498 kts 136°
2026-04-21 18:40 -17.03080 167.58240 25446 ft 495 kts 136°
2026-04-21 18:40 -17.04692 167.59920 25087 ft 491 kts 136°
2026-04-21 18:40 -17.07922 167.63287 24287 ft 487 kts 136°
2026-04-21 18:41 -17.10314 167.65781 23691 ft 484 kts 136°
2026-04-21 18:41 -17.12691 167.68262 23061 ft 480 kts 136°
2026-04-21 18:41 -17.15042 167.70718 22475 ft 475 kts 136°
2026-04-21 18:41 -17.17364 167.73143 21884 ft 469 kts 136°
2026-04-21 18:42 -17.19664 167.75547 21305 ft 464 kts 136°
2026-04-21 18:42 -17.21909 167.77894 20737 ft 460 kts 136°
2026-04-21 18:42 -17.24159 167.80247 20166 ft 455 kts 136°
2026-04-21 18:42 -17.26392 167.82583 19584 ft 451 kts 136°
2026-04-21 18:43 -17.28608 167.84902 19007 ft 447 kts 136°
2026-04-21 18:43 -17.30800 167.87196 18429 ft 444 kts 136°
2026-04-21 18:43 -17.32966 167.89465 17793 ft 436 kts 136°
2026-04-21 18:43 -17.35071 167.91672 17304 ft 420 kts 136°
2026-04-21 18:44 -17.37077 167.93775 16796 ft 409 kts 136°
2026-04-21 18:44 -17.39085 167.95880 16263 ft 406 kts 136°
2026-04-21 18:44 -17.41079 167.97971 15736 ft 403 kts 136°
2026-04-21 18:44 -17.43061 168.00048 15215 ft 401 kts 136°
2026-04-21 18:45 -17.45027 168.02111 14695 ft 398 kts 136°
2026-04-21 18:45 -17.46984 168.04164 14176 ft 396 kts 137°
2026-04-21 18:45 -17.48903 168.06179 13653 ft 394 kts 137°
2026-04-21 18:45 -17.50834 168.08206 13127 ft 390 kts 136°
2026-04-21 18:46 -17.52745 168.10212 12623 ft 386 kts 136°
2026-04-21 18:46 -17.54638 168.12199 12126 ft 383 kts 136°
2026-04-21 18:46 -17.56512 168.14168 11716 ft 376 kts 136°
2026-04-21 18:46 -17.58329 168.16078 11241 ft 373 kts 135°
2026-04-21 18:47 -17.60149 168.17991 10760 ft 370 kts 135°
2026-04-21 18:47 -17.61956 168.19889 10405 ft 361 kts 135°
2026-04-21 18:47 -17.63683 168.21704 10218 ft 340 kts 135°
2026-04-21 18:47 -17.65335 168.23382 10011 ft 322 kts 141°
2026-04-21 18:48 -17.66545 168.24260 9720 ft 316 kts 152°
2026-04-21 18:48 -17.68551 168.25098 9341 ft 304 kts 167°
2026-04-21 18:48 -17.71288 168.25885 9186 ft 308 kts 166°
2026-04-21 18:48 -17.73354 168.26500 8905 ft 307 kts 165°
2026-04-21 18:49 -17.74704 168.26905 8664 ft 302 kts 165°
2026-04-21 18:49 -17.76691 168.27502 8294 ft 292 kts 165°
2026-04-21 18:49 -17.78002 168.27895 8072 ft 289 kts 165°
2026-04-21 18:49 -17.80560 168.28661 7591 ft 286 kts 165°
2026-04-21 18:50 -17.82469 168.29231 7242 ft 284 kts 165°
2026-04-21 18:50 -17.84369 168.29798 6885 ft 283 kts 165°
2026-04-21 18:50 -17.86124 168.30687 6526 ft 281 kts 140°
2026-04-21 18:50 -17.87319 168.32279 6191 ft 277 kts 113°
2026-04-21 18:51 -17.87707 168.34224 5856 ft 271 kts 90°
2026-04-21 18:51 -17.87658 168.36196 5503 ft 269 kts 85°
2026-04-21 18:51 -17.87541 168.38104 5359 ft 259 kts 85°
2026-04-21 18:51 -17.87443 168.39950 5263 ft 248 kts 86°
2026-04-21 18:52 -17.87378 168.41722 5170 ft 237 kts 87°
2026-04-21 18:52 -17.87335 168.43441 4957 ft 233 kts 87°
2026-04-21 18:52 -17.87303 168.45138 4673 ft 232 kts 88°
2026-04-21 18:52 -17.87207 168.46806 4391 ft 230 kts 74°
2026-04-21 18:53 -17.86450 168.48240 4093 ft 225 kts 41°
2026-04-21 18:53 -17.85098 168.48987 3856 ft 217 kts
2026-04-21 18:53 -17.83640 168.49175 3768 ft 205 kts
2026-04-21 18:53 -17.82252 168.49351 3608 ft 199 kts
2026-04-21 18:54 -17.80885 168.49537 3363 ft 197 kts
2026-04-21 18:54 -17.79524 168.49535 3083 ft 196 kts 342°
2026-04-21 18:54 -17.78460 168.48755 2980 ft 184 kts 307°
2026-04-21 18:54 -17.77858 168.47620 2880 ft 172 kts 298°
2026-04-21 18:55 -17.77323 168.46553 2805 ft 158 kts 298°
2026-04-21 18:55 -17.76818 168.45557 2629 ft 153 kts 299°
2026-04-21 18:55 -17.76319 168.44570 2399 ft 153 kts 299°
2026-04-21 18:55 -17.75834 168.43614 2290 ft 141 kts 300°
2026-04-21 18:56 -17.75375 168.42716 2025 ft 137 kts 299°
2026-04-21 18:56 -17.74910 168.41807 1865 ft 144 kts 300°
2026-04-21 18:56 -17.74435 168.40895 1744 ft 141 kts 299°
2026-04-21 18:56 -17.73987 168.39998 1618 ft 141 kts 300°
2026-04-21 18:57 -17.73533 168.39084 1365 ft 139 kts 299°
2026-04-21 18:57 -17.73086 168.38195 1245 ft 139 kts 299°
2026-04-21 18:57 -17.72640 168.37287 1004 ft 136 kts 300°
2026-04-21 18:57 -17.72202 168.36404 867 ft 138 kts 299°
2026-04-21 18:58 -17.71737 168.35525 697 ft 140 kts 296°
2026-04-21 18:58 -17.71274 168.34625 525 ft 138 kts 293°
2026-04-21 18:58 -17.70833 168.33723 332 ft 139 kts 302°
2026-04-21 18:58 -17.70380 168.32841 159 ft 138 kts 300°
2026-04-21 18:59 -17.69940 168.31980 69 ft 127 kts 301°
2026-04-21 18:59 -17.69621 168.31356 62 ft 57 kts 298°
2026-04-21 18:59 -17.69485 168.31086 63 ft 30 kts 298°
2026-04-21 18:59 -17.69383 168.30888 60 ft 31 kts 298°
2026-04-21 19:00 -17.69310 168.30720 58 ft 6 kts 284°
2026-04-21 19:00 -17.69286 168.30681 60 ft 4 kts 338°
2026-04-21 19:00 -17.69247 168.30703 58 ft 13 kts 79°
2026-04-21 19:00 -17.69268 168.30767 59 ft 5 kts 127°
2026-04-21 19:01 -17.69319 168.30811 64 ft 16 kts 141°
2026-04-21 19:01 -17.69393 168.30914 61 ft 19 kts 121°
2026-04-21 19:01 -17.69463 168.31049 59 ft 22 kts 118°
2026-04-21 19:01 -17.69534 168.31190 62 ft 23 kts 118°
2026-04-21 19:02 -17.69612 168.31344 64 ft 25 kts 118°
2026-04-21 19:02 -17.69692 168.31503 68 ft 25 kts 117°
2026-04-21 19:02 -17.69778 168.31670 71 ft 24 kts 119°
2026-04-21 19:02 -17.69844 168.31800 69 ft 16 kts 117°
2026-04-21 19:03 -17.69887 168.31886 66 ft 13 kts 118°
2026-04-21 19:03 -17.69953 168.31944 65 ft 13 kts 191°
2026-04-21 19:03 -17.70029 168.31930 68 ft 10 kts 136°
2026-04-21 19:03 -17.70040 168.31966 67 ft 5 kts 112°
2026-04-21 19:04 -17.70061 168.31972 65 ft 2 kts 223°
2026-04-21 19:04 -17.70065 168.31943 67 ft 6 kts 267°
2026-04-21 19:04 -17.70069 168.31924 69 ft 3 kts 256°
2026-04-21 19:04 -17.70071 168.31915 69 ft 0 kts 252°